Location: BGSU Observatory
(41.3799°N, 83.6397°W)
Time: 09:19:58
(UTC-04:00)

Amateur Radio Satellites - All Passes

Search period start: 28 July 2015 08:49
Search period end: 29 July 2015 08:49
Location: BGSU Observatory, 41.3799°N, 83.6397°W

Satellite Date Start Highest point End Downlink Frequencies (MHz)
Time Altitude Azimuth
GOMX 1 28 Jul 08:56:03 08:59:31 23° 94° (E) 09:03:15 467.674
RS-15 28 Jul 08:58:23 09:10:02 66° 244° (WSW) 09:22:00 29.354- 29.394
HO-68 28 Jul 08:58:33 09:03:26 20° 90° (E) 09:08:37 435.675
Cubesat XI-IV 28 Jul 09:04:11 09:08:46 29° 293° (WNW) 09:13:13 437.490
DOVE 4 28 Jul 09:07:04 09:10:11 19° 92° (E) 09:13:35 437.250
M-CUBED/EXP-1 PRIME 28 Jul 09:18:09 09:21:37 32° 64° (ENE) 09:25:26 437.505
BEESAT 3 28 Jul 09:31:32 09:34:52 24° 46° (NE) 09:38:13 437.485
GONETS M04 28 Jul 09:33:39 09:40:22 23° 297° (WNW) 09:46:45
CINEMA 3 28 Jul 09:49:18 09:52:59 24° 94° (E) 09:56:53 145.822/145.860
COMPASS 1 28 Jul 09:49:19 09:52:49 25° 94° (E) 09:56:21 437.405
AUBIESAT-1 28 Jul 09:51:31 09:55:23 65° 69° (ENE) 09:59:37 437.475
CUTE 1.7 + AOD 2 28 Jul 09:51:55 09:56:02 43° 98° (E) 10:00:07 437.475
SEEDS 28 Jul 09:56:29 10:00:29 38° 97° (E) 10:04:28 437.485
CANX-2 28 Jul 09:59:28 10:03:45 59° 100° (E) 10:07:59 2200.000
BRITE-PL 28 Jul 09:59:52 10:03:55 43° 287° (WNW) 10:08:12 437.365/2234.400
UNISAT 6 28 Jul 10:18:31 10:21:32 19° 66° (ENE) 10:24:44 437.425
BEESAT 2 28 Jul 10:22:27 10:26:29 58° 54° (NE) 10:30:27 435.950
Cosmos 2499 28 Jul 10:26:50 10:33:31 36° 290° (WNW) 10:40:36 435.465 / 435.565
ZACube-1 28 Jul 10:31:01 10:34:05 18° 91° (E) 10:37:20 437.345
GOMX 1 28 Jul 10:33:47 10:37:45 33° 288° (WNW) 10:41:53 467.674
AAUSAT CUBESAT 2 28 Jul 10:34:15 10:38:28 70° 101° (E) 10:42:38 437.432
SO-50 28 Jul 10:38:08 10:42:07 28° 113° (ESE) 10:46:17 436.795
DOVE 4 28 Jul 10:43:54 10:48:08 42° 287° (WNW) 10:52:36 437.250
UWE-3 28 Jul 10:43:58 10:48:04 33° 96° (E) 10:52:16 435.000/436.395/437.385
HO-68 28 Jul 10:44:46 10:51:57 75° 288° (WNW) 10:59:07 435.675
CUBEBUG 2 28 Jul 10:49:49 10:54:15 48° 99° (E) 10:58:48 437.445
DELFI C3 28 Jul 10:52:06 10:55:44 31° 96° (E) 10:59:21 145.870
M-CUBED/EXP-1 PRIME 28 Jul 10:53:30 10:56:32 21° 263° (W) 10:59:41 437.505
FUNcube-1 28 Jul 10:54:06 10:58:05 31° 95° (E) 11:02:10 145.935
PCSat 28 Jul 10:55:23 11:00:43 65° 116° (ESE) 11:06:07 145.827
ANTELSAT 28 Jul 11:02:11 11:06:23 55° 74° (ENE) 11:10:43 437.575/2403.000
TIGRISAT 28 Jul 11:02:24 11:06:34 53° 74° (ENE) 11:10:53 435.000
POLYITAN 1 28 Jul 11:05:23 11:08:42 23° 68° (ENE) 11:12:05 437.675
YUBILEINY 28 Jul 11:08:16 11:13:40 18° 59° (ENE) 11:19:33 435.215
BEESAT 3 28 Jul 11:09:12 11:12:52 33° 244° (WSW) 11:16:26 437.485
Oscar 11 28 Jul 11:14:39 11:19:03 86° 102° (ESE) 11:23:24 145.826/435.025
RS-15 28 Jul 11:14:58 11:20:42 14° 262° (W) 11:25:20 29.354- 29.394
UKube-1 28 Jul 11:17:08 11:19:12 14° 90° (E) 11:21:29 .
POPSAT HIP 1 28 Jul 11:23:44 11:27:33 36° 71° (ENE) 11:31:25 437.405
COMPASS 1 28 Jul 11:24:50 11:28:28 27° 290° (WNW) 11:32:00 437.405
AIST 2 28 Jul 11:25:19 11:29:29 61° 55° (NE) 11:33:34 435.215
CINEMA 3 28 Jul 11:26:05 11:30:16 35° 288° (WNW) 11:34:33 145.822/145.860
CUTE 1.7 + AOD 2 28 Jul 11:28:43 11:31:38 18° 294° (WNW) 11:34:25 437.475
QB50P2 28 Jul 11:30:02 11:34:01 44° 72° (ENE) 11:38:02 145.880/145.840
AUBIESAT-1 28 Jul 11:30:06 11:30:45 10° 269° (W) 11:31:09 437.475
SEEDS 28 Jul 11:32:57 11:36:01 19° 293° (WNW) 11:38:58 437.485
VELOX 1 28 Jul 11:35:40 11:37:54 14° 90° (E) 11:40:21 145.980
CANX-2 28 Jul 11:37:02 11:39:13 13° 295° (WNW) 11:41:13 2200.000
DX 1 28 Jul 11:37:07 11:40:41 25° 95° (E) 11:44:18 434.975-435.025
Cosmos 2491 28 Jul 11:45:25 11:47:56 12° 76° (ENE) 11:51:12 435.465 / 435.565
BUGSAT 1 28 Jul 11:51:23 11:55:15 44° 73° (ENE) 11:59:08 437.445
HUMSAT D 28 Jul 11:53:37 11:57:52 58° 100° (E) 12:02:09 437.325/437.525
UNISAT 6 28 Jul 11:54:01 11:58:03 39° 262° (W) 12:02:11 437.425
QB50P1 28 Jul 11:59:18 12:03:30 88° 257° (WSW) 12:07:44 145.935-145.965
DUCHIFAT 1 28 Jul 11:59:30 12:03:41 89° 78° (ENE) 12:07:53 145.980
BEESAT 2 28 Jul 12:02:14 12:04:06 13° 250° (WSW) 12:05:45 435.950
NANOSAT C BR1 28 Jul 12:02:22 12:06:34 82° 255° (WSW) 12:10:47 145.865
ZACube-1 28 Jul 12:06:23 12:10:40 43° 288° (WNW) 12:14:58 437.345
AAUSAT CUBESAT 2 28 Jul 12:12:14 12:13:32 11° 296° (WNW) 12:14:38 437.432
SO-50 28 Jul 12:18:02 12:22:31 38° 311° (NW) 12:27:07 436.795
UWE-3 28 Jul 12:20:43 12:24:28 25° 291° (WNW) 12:28:12 435.000/436.395/437.385
CUBEBUG 2 28 Jul 12:27:28 12:30:37 18° 293° (WNW) 12:33:42 437.445
DELFI C3 28 Jul 12:27:31 12:30:38 21° 292° (WNW) 12:33:38 145.870
AISAT 28 Jul 12:30:02 12:34:23 58° 101° (E) 12:38:43 437.250
FUNcube-1 28 Jul 12:30:33 12:34:18 26° 291° (WNW) 12:38:00 145.935
HO-68 28 Jul 12:34:39 12:38:40 15° 306° (NW) 12:42:19 435.675
Oscar 19 28 Jul 12:39:45 12:41:38 12° 60° (ENE) 12:43:48 437.125/150
PCSat 28 Jul 12:40:29 12:44:40 22° 316° (NW) 12:48:45 145.827
O/OREOS (USA 219) 28 Jul 12:40:33 12:44:54 42° 62° (ENE) 12:49:16 437.305
POLYITAN 1 28 Jul 12:40:48 12:44:29 29° 264° (W) 12:48:09 437.675
ANTELSAT 28 Jul 12:41:30 12:43:38 13° 272° (W) 12:45:34 437.575/2403.000
TIGRISAT 28 Jul 12:41:33 12:43:46 13° 271° (W) 12:45:48 435.000
AIST 1 28 Jul 12:48:48 12:52:21 26° 90° (E) 12:55:59
50 SAT 28 Jul 12:48:53 12:52:52 67° 284° (WNW) 12:56:48 437.505
UKube-1 28 Jul 12:51:30 12:55:43 53° 287° (WNW) 12:59:54 .
CUBEBUG 1 28 Jul 12:58:02 13:02:21 66° 101° (E) 13:06:38 437.445
POPSAT HIP 1 28 Jul 13:00:32 13:03:35 19° 268° (W) 13:06:30 437.405
YUBILEINY 28 Jul 13:03:15 13:12:08 85° 82° (E) 13:20:59 435.215
ESTCUBE 1 28 Jul 13:04:39 13:09:11 88° 284° (WNW) 13:13:40 437.505/2401.250
AIST 2 28 Jul 13:05:41 13:07:35 13° 250° (WSW) 13:09:16 435.215
QB50P2 28 Jul 13:07:34 13:10:11 15° 270° (W) 13:12:38 145.880/145.840
VELOX 1 28 Jul 13:10:33 13:14:51 52° 287° (WNW) 13:19:07 145.980
DX 1 28 Jul 13:13:09 13:16:56 29° 291° (WNW) 13:20:38 434.975-435.025
BUGSAT 1 28 Jul 13:28:44 13:31:00 14° 269° (W) 13:33:05 437.445
HUMSAT D 28 Jul 13:30:56 13:33:11 14° 295° (WNW) 13:35:15 437.325/437.525
Cosmos 2491 28 Jul 13:34:42 13:43:23 69° 93° (E) 13:52:04 435.465 / 435.565
ITAMSAT 1 28 Jul 13:50:01 13:53:01 16° 62° (ENE) 13:56:13 435.822/435.867
SPROUT 28 Jul 13:50:50 13:55:08 76° 102° (ESE) 13:59:26 437.525
AISAT 28 Jul 14:08:07 14:10:32 14° 296° (WNW) 14:12:46 437.250
Oscar 19 28 Jul 14:15:13 14:20:20 88° 249° (WSW) 14:25:31 437.125/150
TISAT 1 28 Jul 14:19:51 14:24:05 84° 284° (WNW) 14:28:17 437.305
O/OREOS (USA 219) 28 Jul 14:20:44 14:24:03 19° 258° (WSW) 14:27:13 437.305
AIST 1 28 Jul 14:26:14 14:29:58 26° 287° (WNW) 14:33:37
BEESAT 28 Jul 14:33:19 14:36:57 22° 93° (E) 14:40:41 436.000
CUBEBUG 1 28 Jul 14:36:24 14:38:13 12° 296° (WNW) 14:39:51 437.445
JAS-2 28 Jul 14:38:41 14:42:54 21° 59° (ENE) 14:47:42 435.910
Gurwin Techsat 1B 28 Jul 14:40:07 14:45:11 48° 71° (ENE) 14:50:19 435.225
Cosmos 2504 28 Jul 14:44:00 14:52:00 50° 75° (ENE) 15:00:20 435.465 / 435.565
SWISSCUBE 28 Jul 14:52:40 14:57:06 37° 97° (E) 15:01:31 437.505
YUBILEINY 28 Jul 15:01:59 15:07:58 20° 280° (W) 15:13:31 435.215
ITUPSAT 1 28 Jul 15:11:21 15:16:03 52° 100° (E) 15:20:42 437.325
CUSAT 1 28 Jul 15:21:44 15:22:44 11° 72° (ENE) 15:24:01 437.405
AO-7 28 Jul 15:24:50 15:32:07 36° 60° (ENE) 15:39:35 29.400- 29.500
ITAMSAT 1 28 Jul 15:26:48 15:32:00 70° 257° (WSW) 15:37:14 435.822/435.867
SPROUT 28 Jul 15:29:36 15:30:41 11° 297° (WNW) 15:31:31 437.525
Cosmos 2491 28 Jul 15:33:55 15:41:08 26° 295° (WNW) 15:48:03 435.465 / 435.565
BEESAT 28 Jul 16:10:30 16:14:58 39° 290° (WNW) 16:19:23 436.000
DANDE 28 Jul 16:12:17 16:14:59 22° 77° (ENE) 16:18:20 436.750
STARS 28 Jul 16:16:50 16:20:30 26° 95° (E) 16:24:13 437.465
Gurwin Techsat 1B 28 Jul 16:21:25 16:25:29 21° 268° (W) 16:29:25 435.225
JAS-2 28 Jul 16:21:26 16:27:15 69° 259° (W) 16:33:55 435.910
SWISSCUBE 28 Jul 16:30:55 16:34:46 24° 293° (WNW) 16:38:30 437.505
KKS-1 28 Jul 16:32:38 16:37:04 65° 101° (ESE) 16:41:30 437.445
HORYU 2 28 Jul 16:36:15 16:40:41 84° 76° (ENE) 16:45:10 437.375
Cosmos 2504 28 Jul 16:36:36 16:44:02 36° 273° (W) 16:51:32 435.465 / 435.565
ITUPSAT 1 28 Jul 16:50:17 16:53:34 18° 296° (WNW) 16:56:41 437.325
MOZHAYETS 4 28 Jul 16:54:48 16:57:01 14° 88° (E) 16:59:28
CUSAT 1 28 Jul 17:01:33 17:05:16 55° 261° (W) 17:10:10 437.405
AO-7 28 Jul 17:16:29 17:24:40 55° 258° (WSW) 17:32:50 29.400- 29.500
GONETS M04 28 Jul 17:44:07 17:52:04 39° 71° (ENE) 18:00:07
STARS 28 Jul 17:53:05 17:56:56 29° 291° (WNW) 18:00:43 437.465
DANDE 28 Jul 17:55:17 17:58:02 20° 263° (W) 18:01:13 436.750
PCSat 28 Jul 18:02:28 18:03:44 11° 33° (NNE) 18:05:13 145.827
CUTE-I 28 Jul 18:04:08 18:08:30 27° 66° (ENE) 18:12:57 437.470
KKS-1 28 Jul 18:11:02 18:13:14 13° 297° (WNW) 18:15:14 437.445
Cosmos 2499 28 Jul 18:24:25 18:29:34 18° 59° (ENE) 18:35:19 435.465 / 435.565
MOZHAYETS 4 28 Jul 18:30:08 18:34:44 59° 285° (WNW) 18:39:15
CUBESAT XI-V 28 Jul 18:37:24 18:39:37 14° 88° (E) 18:42:04 437.345
Cubesat XI-IV 28 Jul 18:45:46 18:51:03 62° 73° (ENE) 18:56:23 437.490
SO-50 28 Jul 19:09:03 19:13:22 29° 45° (NE) 19:17:41 436.795
HO-68 28 Jul 19:28:58 19:33:04 17° 55° (NE) 19:37:29 435.675
BRITE-PL 28 Jul 19:33:55 19:37:05 20° 68° (ENE) 19:40:14 437.365/2234.400
GONETS M04 28 Jul 19:40:54 19:49:06 47° 271° (W) 19:57:14
PCSat 28 Jul 19:43:14 19:48:33 52° 56° (NE) 19:53:50 145.827
CUTE-I 28 Jul 19:43:20 19:48:24 41° 262° (W) 19:53:27 437.470
VERMONT LUNAR 28 Jul 19:48:05 19:48:38 10° 148° (SSE) 19:49:17 437.305
PRISM 28 Jul 19:51:26 19:54:12 18° 92° (E) 19:57:03 437.425
GOMX 1 28 Jul 20:05:04 20:08:27 23° 69° (ENE) 20:11:49 467.674
CUBESAT XI-V 28 Jul 20:12:58 20:17:31 58° 286° (WNW) 20:22:01 437.345
DOVE 4 28 Jul 20:13:50 20:16:32 17° 67° (ENE) 20:19:21 437.250
Cosmos 2499 28 Jul 20:15:36 20:24:19 80° 81° (E) 20:33:14 435.465 / 435.565
Cubesat XI-IV 28 Jul 20:28:09 20:31:40 17° 270° (W) 20:34:58 437.490
COMPASS 1 28 Jul 20:41:08 20:44:00 18° 67° (ENE) 20:46:59 437.405
STRAND 1 28 Jul 20:43:36 20:48:44 80° 103° (ESE) 20:53:50 437.568
CUTE 1.7 + AOD 2 28 Jul 20:44:54 20:48:38 31° 70° (ENE) 20:52:27 437.475
SEEDS 28 Jul 20:48:43 20:52:17 28° 70° (ENE) 20:55:57 437.485
SO-50 28 Jul 20:49:24 20:54:03 40° 244° (WSW) 20:58:32 436.795
CINEMA 3 28 Jul 20:52:08 20:55:06 20° 67° (ENE) 20:58:12 145.822/145.860
CANX-2 28 Jul 20:52:20 20:56:20 41° 72° (ENE) 21:00:24 2200.000
BRITE-PL 28 Jul 21:11:14 21:15:28 37° 262° (W) 21:19:27 437.365/2234.400
HO-68 28 Jul 21:12:44 21:19:52 83° 73° (ENE) 21:27:04 435.675
RS-15 28 Jul 21:14:31 21:21:06 20° 101° (E) 21:28:30 29.354- 29.394
VERMONT LUNAR 28 Jul 21:21:53 21:24:54 39° 161° (SSE) 21:27:53 437.305
AAUSAT CUBESAT 2 28 Jul 21:24:47 21:28:47 46° 73° (ENE) 21:32:51 437.432
PRISM 28 Jul 21:25:59 21:29:48 36° 289° (WNW) 21:33:33 437.425
PCSat 28 Jul 21:27:28 21:31:38 22° 252° (WSW) 21:35:38 145.827
ZACube-1 28 Jul 21:28:16 21:30:24 14° 65° (ENE) 21:32:45 437.345
DELFI C3 28 Jul 21:39:46 21:42:43 20° 68° (ENE) 21:45:47 145.870
UWE-3 28 Jul 21:41:47 21:45:11 25° 69° (ENE) 21:48:41 435.000/436.395/437.385
GOMX 1 28 Jul 21:42:45 21:46:32 28° 264° (W) 21:50:10 467.674
CUBEBUG 2 28 Jul 21:48:31 21:52:20 37° 72° (ENE) 21:56:16 437.445
DOVE 4 28 Jul 21:50:09 21:54:06 38° 262° (W) 21:57:59 437.250
FUNcube-1 28 Jul 21:50:29 21:53:46 23° 68° (ENE) 21:57:11 145.935
Oscar 11 28 Jul 22:09:11 22:13:28 66° 75° (ENE) 22:17:48 145.826/435.025
PHONESAT 2.4 28 Jul 22:09:56 22:12:32 20° 152° (SSE) 22:15:10 2401.200-2431.200
Cosmos 2499 28 Jul 22:10:19 22:16:42 22° 278° (W) 22:22:46 435.465 / 435.565
UKube-1 28 Jul 22:12:44 22:14:37 13° 63° (ENE) 22:16:42 .
COMPASS 1 28 Jul 22:15:27 22:19:24 38° 263° (W) 22:23:22 437.405
CUTE 1.7 + AOD 2 28 Jul 22:21:11 22:24:35 22° 267° (W) 22:27:56 437.475
SEEDS 28 Jul 22:24:31 22:28:03 25° 266° (W) 22:31:33 437.485
STRAND 1 28 Jul 22:24:46 22:27:21 14° 299° (WNW) 22:29:41 437.568
CINEMA 3 28 Jul 22:28:21 22:32:08 33° 264° (W) 22:35:55 145.822/145.860
ISS 28 Jul 22:28:31 22:30:43 17° 133° (SE) 22:33:00 145.825
CANX-2 28 Jul 22:29:39 22:32:30 17° 269° (W) 22:35:13 2200.000
DX 1 28 Jul 22:33:02 22:36:25 23° 68° (ENE) 22:39:54 434.975-435.025
M-CUBED/EXP-1 PRIME 28 Jul 22:33:05 22:37:15 29° 99° (E) 22:41:25 437.505
VELOX 1 28 Jul 22:33:54 22:36:07 14° 64° (ENE) 22:38:31 145.980
HUMSAT D 28 Jul 22:45:25 22:49:15 39° 72° (ENE) 22:53:11 437.325/437.525
ANTELSAT 28 Jul 22:55:40 22:57:36 13° 88° (E) 22:59:47 437.575/2403.000
TIGRISAT 28 Jul 22:55:48 22:57:30 12° 88° (E) 22:59:29 435.000
VERMONT LUNAR 28 Jul 22:58:19 23:01:30 77° 178° (S) 23:04:40 437.305
AAUSAT CUBESAT 2 28 Jul 23:02:14 23:04:41 15° 270° (W) 23:07:00 437.432
ZACube-1 28 Jul 23:02:18 23:06:21 51° 261° (W) 23:10:31 437.345
HO-68 28 Jul 23:03:51 23:08:34 18° 272° (W) 23:12:54 435.675
AUBIESAT-1 28 Jul 23:05:59 23:10:40 54° 104° (ESE) 23:15:15 437.475
DELFI C3 28 Jul 23:13:57 23:17:37 32° 264° (W) 23:21:17 145.870
UWE-3 28 Jul 23:18:06 23:21:39 26° 266° (W) 23:25:13 435.000/436.395/437.385
RS-15 28 Jul 23:21:03 23:31:56 84° 120° (ESE) 23:43:17 29.354- 29.394
FUNcube-1 28 Jul 23:26:21 23:30:00 29° 265° (W) 23:33:40 145.935
CUBEBUG 2 28 Jul 23:26:22 23:29:15 17° 269° (W) 23:32:01 437.445
AISAT 28 Jul 23:27:40 23:31:58 52° 73° (ENE) 23:36:16 437.250
50 SAT 28 Jul 23:32:23 23:36:13 65° 75° (ENE) 23:40:06 437.505
UNISAT 6 28 Jul 23:45:17 23:49:42 42° 98° (E) 23:54:11 437.425
Cosmos 2491 28 Jul 23:45:22 23:53:01 34° 69° (ENE) 00:00:48 435.465 / 435.565
DUCHIFAT 1 28 Jul 23:45:29 23:47:41 14° 90° (E) 23:50:05 145.980
QB50P1 28 Jul 23:45:36 23:47:59 15° 90° (E) 23:50:32 145.935-145.965
UKube-1 28 Jul 23:46:00 23:50:17 62° 259° (WSW) 23:54:36 .
PHONESAT 2.4 28 Jul 23:46:42 23:50:09 58° 168° (SSE) 23:53:36 2401.200-2431.200
NANOSAT C BR1 28 Jul 23:48:18 23:50:50 16° 91° (E) 23:53:32 145.865
Oscar 11 28 Jul 23:48:55 23:50:11 11° 273° (W) 23:51:11 145.826/435.025
CUBEBUG 1 28 Jul 23:54:00 23:58:16 55° 73° (ENE) 00:02:33 437.445
ISS 29 Jul 00:03:41 00:06:53 53° 328° (NNW) 00:10:05 145.825
ESTCUBE 1 29 Jul 00:04:00 00:08:33 85° 74° (ENE) 00:13:07 437.505/2401.250
M-CUBED/EXP-1 PRIME 29 Jul 00:07:40 00:12:00 33° 295° (WNW) 00:16:13 437.505
VELOX 1 29 Jul 00:07:52 00:12:14 59° 259° (W) 00:16:37 145.980
DX 1 29 Jul 00:08:36 00:12:32 32° 263° (W) 00:16:26 434.975-435.025
YUBILEINY 29 Jul 00:11:12 00:16:36 19° 80° (E) 00:22:28 435.215
BEESAT 2 29 Jul 00:19:16 00:19:50 10° 109° (ESE) 00:20:40 435.950
HUMSAT D 29 Jul 00:22:30 00:25:14 16° 269° (W) 00:27:49 437.325/437.525
POLYITAN 1 29 Jul 00:25:24 00:29:28 42° 98° (E) 00:33:34 437.675
TIGRISAT 29 Jul 00:30:08 00:34:47 69° 284° (WNW) 00:39:27 435.000
ANTELSAT 29 Jul 00:30:14 00:34:54 67° 285° (WNW) 00:39:34 437.575/2403.000
AIST 1 29 Jul 00:32:25 00:36:42 75° 83° (E) 00:40:56
VERMONT LUNAR 29 Jul 00:35:05 00:38:10 50° 195° (SSW) 00:41:13 437.305
AUBIESAT-1 29 Jul 00:41:34 00:44:58 19° 300° (WNW) 00:48:12 437.475
POPSAT HIP 1 29 Jul 00:43:57 00:48:13 68° 102° (ESE) 00:52:27 437.405
SPROUT 29 Jul 00:44:49 00:49:00 57° 74° (ENE) 00:53:12 437.525
QB50P2 29 Jul 00:50:36 00:54:53 84° 102° (ESE) 00:59:09 145.880/145.840
BEESAT 3 29 Jul 01:01:10 01:04:58 40° 117° (ESE) 01:08:50 437.485
AISAT 29 Jul 01:06:25 01:08:54 14° 270° (W) 01:11:11 437.250
BUGSAT 1 29 Jul 01:08:24 01:12:28 80° 101° (ESE) 01:16:33 437.445
TISAT 1 29 Jul 01:11:43 01:15:53 72° 75° (ENE) 01:20:03 437.305
DUCHIFAT 1 29 Jul 01:19:44 01:23:49 48° 287° (WNW) 01:27:54 145.980
QB50P1 29 Jul 01:20:03 01:24:08 46° 287° (WNW) 01:28:12 145.935-145.965
UNISAT 6 29 Jul 01:22:42 01:26:14 21° 293° (WNW) 01:29:40 437.425
NANOSAT C BR1 29 Jul 01:22:53 01:26:56 43° 287° (WNW) 01:30:57 145.865
PHONESAT 2.4 29 Jul 01:24:33 01:28:03 77° 184° (S) 01:31:33 2401.200-2431.200
AIST 2 29 Jul 01:25:24 01:27:14 13° 110° (ESE) 01:29:16 435.215
CUBEBUG 1 29 Jul 01:32:47 01:35:01 13° 271° (W) 01:37:03 437.445
RS-15 29 Jul 01:36:00 01:45:52 35° 328° (NNW) 01:55:57 29.354- 29.394
BEESAT 29 Jul 01:39:53 01:43:47 26° 67° (ENE) 01:47:49 436.000
ISS 29 Jul 01:41:40 01:43:51 16° 348° (NNW) 01:46:01 145.825
Cosmos 2491 29 Jul 01:41:54 01:50:17 53° 269° (W) 01:58:35 435.465 / 435.565
BEESAT 2 29 Jul 01:53:16 01:57:22 72° 303° (WNW) 02:01:31 435.950
SWISSCUBE 29 Jul 01:59:09 02:03:40 44° 71° (ENE) 02:08:15 437.505
POLYITAN 1 29 Jul 02:02:11 02:05:06 18° 293° (WNW) 02:07:51 437.675
YUBILEINY 29 Jul 02:03:43 02:12:25 85° 278° (W) 02:21:14 435.215
VERMONT LUNAR 29 Jul 02:12:36 02:14:30 15° 210° (SSW) 02:16:20 437.305
ITUPSAT 1 29 Jul 02:18:02 02:22:46 61° 73° (ENE) 02:27:32 437.325
POPSAT HIP 1 29 Jul 02:22:01 02:23:35 12° 296° (WNW) 02:24:56 437.405
SPROUT 29 Jul 02:23:41 02:25:31 12° 271° (W) 02:27:09 437.525
Oscar 19 29 Jul 02:26:59 02:31:35 32° 96° (E) 02:36:15 437.125/150
BEESAT 3 29 Jul 02:39:51 02:43:05 22° 315° (NW) 02:46:16 437.485
O/OREOS (USA 219) 29 Jul 02:52:47 02:57:04 47° 107° (ESE) 03:01:24 437.305
Gurwin Techsat 1B 29 Jul 02:57:07 03:00:45 19° 90° (E) 03:04:34 435.225
AIST 2 29 Jul 03:01:08 03:05:21 63° 305° (NW) 03:09:35 435.215
PHONESAT 2.4 29 Jul 03:02:36 03:05:51 37° 200° (SSW) 03:09:05 2401.200-2431.200
STARS 29 Jul 03:14:03 03:17:30 24° 68° (ENE) 03:21:01 437.465
Cosmos 2504 29 Jul 03:15:43 03:21:46 33° 86° (E) 03:28:18 435.465 / 435.565
BEESAT 29 Jul 03:17:09 03:21:31 34° 264° (W) 03:25:52 436.000
ISS 29 Jul 03:19:17 03:21:13 15° 8° (N) 03:23:10 145.825
KKS-1 29 Jul 03:30:41 03:35:01 59° 73° (ENE) 03:39:24 437.445
JAS-2 29 Jul 03:30:48 03:36:24 22° 87° (E) 03:42:20 435.910
BEESAT 2 29 Jul 03:35:07 03:36:13 11° 324° (NW) 03:37:11 435.950
SWISSCUBE 29 Jul 03:38:10 03:41:45 20° 268° (W) 03:45:13 437.505
ITAMSAT 1 29 Jul 03:39:45 03:44:38 41° 98° (E) 03:49:31 435.822/435.867
RS-15 29 Jul 03:54:53 04:03:03 22° 1° (N) 04:11:29 29.354- 29.394
MOZHAYETS 4 29 Jul 03:57:15 03:59:36 14° 64° (ENE) 04:02:10
ITUPSAT 1 29 Jul 03:58:25 04:01:08 14° 271° (W) 04:03:37 437.325
YUBILEINY 29 Jul 04:05:09 04:10:54 18° 302° (WNW) 04:16:12 435.215
Oscar 19 29 Jul 04:06:22 04:10:54 31° 292° (WNW) 04:15:23 437.125/150
HORYU 2 29 Jul 04:28:35 04:31:19 16° 91° (E) 04:34:13 437.375
O/OREOS (USA 219) 29 Jul 04:33:37 04:36:48 18° 306° (NW) 04:39:54 437.305
Gurwin Techsat 1B 29 Jul 04:35:57 04:41:08 54° 288° (WNW) 04:46:18 435.225
AIST 2 29 Jul 04:44:10 04:44:50 10° 325° (NW) 04:45:20 435.215
STARS 29 Jul 04:49:54 04:53:49 31° 264° (W) 04:57:42 437.465
ISS 29 Jul 04:55:17 04:58:19 36° 27° (NNE) 05:01:23 145.825
Cosmos 2504 29 Jul 05:07:04 05:13:46 44° 286° (WNW) 05:20:52 435.465 / 435.565
KKS-1 29 Jul 05:10:01 05:12:07 13° 271° (W) 05:13:59 437.445
JAS-2 29 Jul 05:14:25 05:22:13 79° 286° (WNW) 05:30:02 435.910
AO-7 29 Jul 05:17:46 05:25:52 53° 101° (E) 05:33:56 29.400- 29.500
ITAMSAT 1 29 Jul 05:19:43 05:23:56 25° 294° (WNW) 05:28:02 435.822/435.867
DANDE 29 Jul 05:25:14 05:28:19 26° 98° (E) 05:30:56 436.750
MOZHAYETS 4 29 Jul 05:31:45 05:36:21 64° 259° (W) 05:41:00
CUBESAT XI-V 29 Jul 05:41:07 05:43:42 15° 64° (ENE) 05:46:27 437.345
HORYU 2 29 Jul 06:03:55 06:08:17 48° 287° (WNW) 06:12:36 437.375
RS-15 29 Jul 06:09:45 06:20:09 37° 35° (NE) 06:31:08 29.354- 29.394
CUSAT 1 29 Jul 06:11:02 06:13:51 30° 282° (WNW) 06:16:19 437.405
STRAND 1 29 Jul 06:23:10 06:25:57 15° 62° (ENE) 06:28:57 437.568
ISS 29 Jul 06:31:49 06:34:39 28° 224° (SW) 06:37:29 145.825
PRISM 29 Jul 06:42:13 06:44:30 15° 65° (ENE) 06:46:56 437.425
GONETS M04 29 Jul 06:45:16 06:53:17 44° 88° (E) 07:01:23
JAS-2 29 Jul 07:01:15 07:06:15 18° 303° (WNW) 07:10:58 435.910
Cubesat XI-IV 29 Jul 07:03:39 07:07:53 24° 93° (E) 07:12:13 437.490
DANDE 29 Jul 07:10:30 07:11:24 11° 287° (WNW) 07:12:06 436.750
AO-7 29 Jul 07:10:58 07:18:27 37° 300° (WNW) 07:25:45 29.400- 29.500
CUBESAT XI-V 29 Jul 07:16:03 07:20:42 61° 260° (W) 07:25:21 437.345
STRAND 1 29 Jul 07:59:28 08:04:37 72° 257° (WSW) 08:09:47 437.568
CUTE-I 29 Jul 07:59:55 08:05:17 80° 102° (ESE) 08:10:36 437.470
PRISM 29 Jul 08:15:28 08:19:34 50° 260° (W) 08:23:40 437.425
RS-15 29 Jul 08:22:15 08:34:05 82° 240° (WSW) 08:46:18 29.354- 29.394
BEESAT 2 29 Jul 08:37:07 08:37:28 10° 35° (NE) 08:37:58 435.950
